Simultaneous Nadir Overpasses (SNOs) Predictions

Prediction of SNOs between AQUA and GOES-15 Satellite Orbit:

Table of predicted SNOs for the next 14.0 days since TLE Epoch: 8/9/2014
Index Date Time (AQUA) AQUA Lat,Lon GOES-15 Lat,Lon Distance(km) Time Diff (sec)
1 08/09/2014 10:38:24 -0.18,-135.71 -0.25,-135.49 25.81 80
2 08/11/2014 10:26:14 -0.85,-132.76 -0.25,-135.48 309.42 80
3 08/11/2014 22:47:37 -0.26,-137.95 0.26,-135.49 280.10 80
4 08/13/2014 22:35:25 0.37,-135.00 0.26,-135.48 54.70 80
5 08/15/2014 22:23:13 1.02,-132.04 0.26,-135.46 389.16 80
6 08/16/2014 10:44:28 0.09,-137.19 -0.27,-135.44 199.18 80
7 08/18/2014 10:32:15 -0.52,-134.23 -0.27,-135.41 134.68 80
8 08/18/2014 22:53:39 -0.58,-139.42 0.28,-135.42 455.14 80
9 08/20/2014 10:20:02 -1.14,-131.27 -0.28,-135.39 468.14 80
10 08/20/2014 22:41:26 0.05,-136.46 0.28,-135.39 121.73 80
11 08/22/2014 22:29:13 0.70,-133.50 0.29,-135.36 211.43 80




NCC Satellite Simultaneous Nadir Overpasses (SNOs) Prediction Service
